Location: Unspecified
(44.0704°N, 88.6889°W)
Time: 19:56:25
(UTC+02:00)

SR - Visible Passes

Search period start: 16 June 2019 00:00
Search period end: 26 June 2019 00:00
Orbit: 582 x 874 km, 66.7° (Epoch: 15 June)

Date Brightness Start Highest point End Pass type
(mag) Time Alt. Az. Time Alt. Az. Time Alt. Az.
19 Jun ? 10:55:37 10° SE 10:57:28 13° ESE 10:59:18 10° E visible
21 Jun ? 10:56:22 10° SSE 10:59:52 26° ESE 11:03:26 10° NE visible
22 Jun ? 10:09:06 10° SE 10:10:37 12° ESE 10:12:09 10° E visible
23 Jun ? 10:58:33 11° SSW 11:02:25 53° ESE 11:06:37 10° NE visible
24 Jun ? 10:10:23 14° SSE 10:13:02 24° ESE 10:16:29 10° ENE visible
25 Jun ? 09:22:43 10° ESE 09:23:47 11° ESE 09:24:52 10° E visible
25 Jun ? 11:01:35 15° SW 11:05:06 74° WNW 11:09:27 10° NNE visible
